Terminal Aerodrome Forecast
Issued by NWS

Home | Current Version | Previous Version | Graphics & Text | Print | Product List | Glossary On
Versions: 1 2 3 4 5 6 7 8 9 10 11 12 13 14 15 16 17 18
000
FTUS42 KMHX 211946 AAA
TAFPGV
TAF AMD
KPGV 211946Z 2120/2218 31020G35KT 3/4SM +TSRA BKN005 OVC010CB
     FM212030 17010KT P6SM SHRA VCTS SCT025 BKN030CB
     FM220000 36004KT P6SM OVC015
     FM220500 34003KT P6SM BKN007
     FM221200 36008KT P6SM SCT030
      AMD LTD TO CLD VIS AND WIND=

USA.gov is the U.S. government's official web portal to all federal, state and local government web resources and services.